Horseshoe Bay, TX

7:38 AM CST on January 23, 2017 (GMT -0600)
Horseshoe Bay

Weather History for KDZB - February, 2014

Change the Weather History Date:

Saturday, February 15, 2014

  Actual Average (KBMQ) Record (KBMQ)
Temperature  
Mean Temperature 54 °F -  
Max Temperature 76 °F 61 °F 84 °F (2005)
Min Temperature 33 °F 41 °F 26 °F (2007)
Degree Days  
Heating Degree Days 10    
Growing Degree Days 4 (Base 50)    
Moisture  
Dew Point 33 °F    
Average Humidity 47    
Maximum Humidity 81    
Minimum Humidity 21    
Precipitation  
Precipitation 0.00 in - - ()
Sea Level Pressure  
Sea Level Pressure 30.07 in    
Wind  
Wind Speed 4 mph (SSE)    
Max Wind Speed 14 mph    
Max Gust Speed 21 mph    
Visibility 10 miles    
Events      
Averages and records for this station are not official NWS values.
T = Trace of Precipitation, MM = Missing Value Source: NWS Daily Summary

Daily Weather History Graph

Daily Weather History Graph

Search for Another Location

Airport or City:

Trip Planner

Search our weather history database for the weather conditions in past years. The results will help you decide how hot, cold, wet, or windy it might be!

Date:

Astronomy

Feb. 15, 2014 Rise Set
Actual Time 6:13 AM MST 5:21 PM MST
Civil Twilight 5:49 AM MST 5:46 PM MST
Nautical Twilight 5:21 AM MST 6:14 PM MST
Astronomical Twilight 4:53 AM MST 6:42 PM MST
Moon 6:15 PM MST (2/15) 6:19 AM MST (2/15)
Length of Visible Light 11h 56m
Length of Day
11h 07m
Waxing Gibbous, 99% of the Moon is Illuminated
Feb 15
Waxing Gibbous
Feb 22
Last Quarter
Mar 1
New
Mar 8
First Quarter
Mar 16
Full

Hourly Weather History & Observations

Time (MST) Temp. Windchill Dew Point Humidity Pressure Visibility Wind Dir Wind Speed Gust Speed Precip Events Conditions
12:15 AM 41.2 °F - 27.5 °F 58% 30.11 in 10.0 mi Calm Calm - N/A   Clear
12:35 AM 39.2 °F - 27.3 °F 62% 30.11 in 10.0 mi Calm Calm - N/A   Clear
12:55 AM 39.2 °F 37.0 °F 27.0 °F 62% 30.11 in 10.0 mi South 3.5 mph - N/A   Clear
1:15 AM 38.3 °F 35.9 °F 26.8 °F 63% 30.11 in 10.0 mi SSE 3.5 mph - N/A   Clear
1:35 AM 37.8 °F - 26.6 °F 64% 30.11 in 10.0 mi Calm Calm - N/A   Clear
1:55 AM 36.7 °F - 27.0 °F 68% 30.11 in 10.0 mi Calm Calm - N/A   Clear
2:15 AM 36.9 °F 34.3 °F 26.6 °F 66% 30.10 in 10.0 mi SSE 3.5 mph - N/A   Clear
2:35 AM 36.5 °F - 26.8 °F 68% 30.11 in 10.0 mi Calm Calm - N/A   Clear
2:55 AM 37.0 °F 34.5 °F 26.6 °F 66% 30.10 in 10.0 mi SSE 3.5 mph - N/A   Clear
3:15 AM 36.1 °F - 26.6 °F 68% 30.11 in 10.0 mi Calm Calm - N/A   Clear
3:35 AM 36.7 °F - 26.2 °F 66% 30.11 in 10.0 mi Calm Calm - N/A   Clear
3:55 AM 35.6 °F 32.8 °F 26.4 °F 69% 30.11 in 10.0 mi SSE 3.5 mph - N/A   Clear
4:15 AM 35.8 °F - 26.6 °F 69% 30.10 in 10.0 mi Calm Calm - N/A   Clear
4:35 AM 35.6 °F 30.7 °F 26.4 °F 69% 30.11 in 10.0 mi SW 5.8 mph - N/A   Clear
4:55 AM 35.1 °F - 26.6 °F 71% 30.12 in 10.0 mi Calm Calm - N/A   Clear
5:15 AM 34.3 °F 31.4 °F 26.4 °F 73% 30.12 in 10.0 mi SSE 3.5 mph - N/A   Clear
5:35 AM 33.8 °F - 26.2 °F 74% 30.13 in 10.0 mi Calm Calm - N/A   Clear
5:55 AM 34.0 °F 31.0 °F 26.2 °F 73% 30.13 in 10.0 mi South 3.5 mph - N/A   Clear
6:15 AM 34.5 °F 31.6 °F 26.1 °F 71% 30.13 in 10.0 mi South 3.5 mph - N/A   Clear
6:35 AM 34.2 °F 31.2 °F 26.6 °F 74% 30.12 in 10.0 mi South 3.5 mph - N/A   Clear
6:55 AM 37.6 °F 35.1 °F 28.2 °F 69% 30.12 in 10.0 mi SSE 3.5 mph - N/A   Clear
7:15 AM 46.4 °F 43.5 °F 28.8 °F 50% 30.13 in 10.0 mi SSE 5.8 mph - N/A   Clear
7:35 AM 51.6 °F - 26.4 °F 38% 30.14 in 10.0 mi SE 3.5 mph - N/A   Clear
7:55 AM 53.8 °F - 27.0 °F 36% 30.15 in 10.0 mi ESE 4.6 mph - N/A   Clear
8:15 AM 55.8 °F - 27.5 °F 34% 30.15 in 10.0 mi ESE 4.6 mph - N/A   Clear
8:35 AM 57.0 °F - 27.9 °F 33% 30.15 in 10.0 mi SE 9.2 mph - N/A   Clear
8:55 AM 57.6 °F - 27.7 °F 32% 30.15 in 10.0 mi SSE 8.1 mph 16.1 mph N/A   Clear
9:15 AM 59.2 °F - 27.9 °F 30% 30.15 in 10.0 mi SE 10.4 mph 17.3 mph N/A   Clear
9:35 AM 60.4 °F - 28.6 °F 30% 30.15 in 10.0 mi SSE 9.2 mph 19.6 mph N/A   Clear
9:55 AM 62.2 °F - 29.7 °F 29% 30.14 in 10.0 mi SSE 12.7 mph 19.6 mph N/A   Clear
10:15 AM 64.4 °F - 29.7 °F 27% 30.13 in 10.0 mi SSE 9.2 mph 16.1 mph N/A   Clear
10:35 AM 65.5 °F - 29.3 °F 26% 30.13 in 10.0 mi SSE 9.2 mph - N/A   Clear
10:55 AM 67.1 °F - 29.8 °F 25% 30.11 in 10.0 mi South 13.8 mph 18.4 mph N/A   Clear
11:15 AM 68.4 °F - 30.2 °F 24% 30.11 in 10.0 mi South 10.4 mph - N/A   Clear
11:35 AM 68.9 °F - 30.4 °F 24% 30.10 in 10.0 mi South 11.5 mph 19.6 mph N/A   Clear
11:55 AM 70.5 °F - 30.7 °F 23% 30.08 in 10.0 mi South 10.4 mph 16.1 mph N/A   Clear
12:15 PM 70.9 °F - 30.9 °F 23% 30.07 in 10.0 mi South 9.2 mph 18.4 mph N/A   Clear
12:35 PM 71.8 °F - 30.6 °F 22% 30.06 in 10.0 mi South 12.7 mph 18.4 mph N/A   Clear
12:55 PM 73.6 °F - 31.5 °F 21% 30.05 in 10.0 mi South 8.1 mph 16.1 mph N/A   Clear
1:15 PM 74.3 °F - 31.8 °F 21% 30.03 in 10.0 mi South 5.8 mph 17.3 mph N/A   Clear
1:35 PM 74.3 °F - 32.2 °F 21% 30.03 in 10.0 mi South 8.1 mph 16.1 mph N/A   Clear
1:55 PM 75.4 °F - 33.3 °F 21% 30.02 in 10.0 mi South 9.2 mph - N/A   Clear
2:15 PM 75.2 °F - 33.6 °F 22% 30.01 in 10.0 mi South 10.4 mph 17.3 mph N/A   Clear
2:35 PM 75.4 °F - 34.5 °F 23% 30.00 in 10.0 mi South 8.1 mph - N/A   Clear
2:55 PM 76.5 °F - 35.8 °F 23% 30.00 in 10.0 mi SSW 6.9 mph - N/A   Clear
3:15 PM 75.9 °F - 36.3 °F 24% 29.99 in 10.0 mi SSW 8.1 mph 18.4 mph N/A   Clear
3:35 PM 74.3 °F - 36.7 °F 25% 30.00 in 10.0 mi South 11.5 mph 20.7 mph N/A   Clear
3:55 PM 74.5 °F - 37.6 °F 26% 29.99 in 10.0 mi SSW 6.9 mph 16.1 mph N/A   Clear
4:15 PM 73.8 °F - 37.6 °F 27% 29.99 in 10.0 mi South 9.2 mph 18.4 mph N/A   Clear
4:35 PM 72.7 °F - 38.1 °F 28% 29.98 in 10.0 mi South 6.9 mph - N/A   Clear
4:55 PM 71.8 °F - 37.9 °F 29% 29.99 in 10.0 mi South 6.9 mph 16.1 mph N/A   Clear
5:15 PM 69.8 °F - 37.9 °F 31% 29.99 in 10.0 mi South 4.6 mph - N/A   Clear
5:35 PM 66.7 °F - 37.8 °F 34% 29.99 in 10.0 mi SSE 3.5 mph - N/A   Clear
5:55 PM 65.1 °F - 37.9 °F 37% 30.00 in 10.0 mi SE 4.6 mph - N/A   Clear
6:15 PM 64.6 °F - 38.5 °F 38% 30.00 in 10.0 mi SSE 4.6 mph - N/A   Clear
6:35 PM 63.5 °F - 38.8 °F 40% 30.01 in 10.0 mi SSE 3.5 mph - N/A   Clear
6:55 PM 61.2 °F - 39.0 °F 44% 30.01 in 10.0 mi SSE 3.5 mph - N/A   Clear
7:15 PM 59.5 °F - 39.4 °F 47% 30.02 in 10.0 mi Calm Calm - N/A   Clear
7:35 PM 58.5 °F - 39.7 °F 50% 30.03 in 10.0 mi Calm Calm - N/A   Clear
7:55 PM 58.8 °F - 40.1 °F 50% 30.03 in 10.0 mi Calm Calm - N/A   Clear
8:15 PM 58.1 °F - 40.6 °F 52% 30.03 in 10.0 mi SE 4.6 mph - N/A   Clear
8:35 PM 57.7 °F - 41.0 °F 54% 30.04 in 10.0 mi SSE 4.6 mph - N/A   Clear
8:55 PM 56.7 °F - 41.2 °F 56% 30.04 in 10.0 mi SE 3.5 mph - N/A   Clear
9:15 PM 55.9 °F - 41.5 °F 58% 30.04 in 10.0 mi Calm Calm - N/A   Clear
9:35 PM 54.7 °F - 41.9 °F 62% 30.04 in 10.0 mi Calm Calm - N/A   Clear
9:55 PM 54.9 °F - 43.0 °F 64% 30.04 in 10.0 mi SSE 4.6 mph - N/A   Clear
10:15 PM 54.5 °F - 43.7 °F 67% 30.03 in 10.0 mi ESE 3.5 mph - N/A   Clear
10:35 PM 54.5 °F - 45.0 °F 70% 30.03 in 10.0 mi Calm Calm - N/A   Clear
10:55 PM 55.6 °F - 47.1 °F 73% 30.03 in 10.0 mi SSE 3.5 mph - N/A   Clear
11:15 PM 57.2 °F - 48.7 °F 73% 30.02 in 10.0 mi SSE 4.6 mph - N/A   Clear
11:35 PM 57.6 °F - 50.7 °F 78% 30.02 in 10.0 mi Calm Calm - N/A   Clear
11:55 PM 56.3 °F - 50.5 °F 81% 30.02 in 10.0 mi Calm Calm - N/A   Clear